| time (UTC) | temp C | wind direction | speed KPH | gust KPH | rain 1hr cm | rain 24hr cm | rain mn cm | humidity % | barometer mb |
| 20260504160120 | 21 | 259 | 4.8 | 11.3 | 0.00 | 0.00 | 0.00 | 47 | 1020.7 |
| 20260504151113 | 20 | 309 | 4.8 | 12.9 | 0.00 | 0.00 | 0.00 | 46 | 1020.8 |
| 20260504150613 | 20 | 263 | 4.8 | 11.3 | 0.00 | 0.00 | 0.00 | 47 | 1020.9 |
| 20260504150114 | 20 | 264 | 4.8 | 11.3 | 0.00 | 0.00 | 0.00 | 49 | 1020.9 |
| 20260504141109 | 18 | 225 | 4.8 | 11.3 | 0.00 | 0.00 | 0.00 | 52 | 1021.4 |
| 20260504140734 | 18 | 239 | 6.4 | 14.5 | 0.00 | 0.00 | 0.00 | 53 | 1021.5 |
| 20260504140626 | 18 | 187 | 4.8 | 11.3 | 0.00 | 0.00 | 0.00 | 54 | 1021.4 |
| 20260504130603 | 13 | 302 | 0.0 | 1.6 | 0.00 | 0.00 | 0.00 | 79 | 1021.3 |
| 20260504130115 | 12 | 302 | 0.0 | 1.6 | 0.00 | 0.00 | 0.00 | 84 | 1021.4 |
| 20260504110525 | 5 | 275 | 0.0 | 0.0 | 0.00 | 0.00 | 0.00 | 91 | 1020.8 |
| 20260504100505 | 5 | 275 | 0.0 | 0.0 | 0.00 | 0.00 | 0.00 | 90 | 1020.6 |
| 20260504081933 | 5 | 276 | 0.0 | 0.0 | 0.00 | 0.00 | 0.00 | 90 | 1020.5 |
| 20260504081431 | 5 | 275 | 0.0 | 0.0 | 0.00 | 0.00 | 0.00 | 90 | 1020.5 |
| 20260504080929 | 5 | 275 | 0.0 | 0.0 | 0.00 | 0.00 | 0.00 | 90 | 1020.5 |
| 20260504080430 | 5 | 275 | 0.0 | 0.0 | 0.00 | 0.00 | 0.00 | 90 | 1020.7 |
| 20260504070406 | 6 | 275 | 0.0 | 0.0 | 0.00 | 0.00 | 0.00 | 89 | 1020.9 |
| 20260504050347 | 7 | 275 | 0.0 | 0.0 | 0.00 | 0.00 | 0.00 | 88 | 1021.6 |
| 20260504045848 | 7 | 275 | 0.0 | 0.0 | 0.00 | 0.00 | 0.00 | 87 | 1021.5 |
| 20260504045344 | 7 | 275 | 0.0 | 0.0 | 0.00 | 0.00 | 0.00 | 87 | 1021.5 |
| 20260504044843 | 7 | 275 | 0.0 | 0.0 | 0.00 | 0.00 | 0.00 | 87 | 1021.6 |
| 20260504044343 | 7 | 275 | 0.0 | 0.0 | 0.00 | 0.00 | 0.00 | 87 | 1021.6 |
| 20260504043843 | 7 | 275 | 0.0 | 0.0 | 0.00 | 0.00 | 0.00 | 87 | 1021.6 |
| 20260504043343 | 7 | 275 | 0.0 | 0.0 | 0.00 | 0.00 | 0.00 | 87 | 1021.5 |
| 20260504042843 | 7 | 275 | 0.0 | 0.0 | 0.00 | 0.00 | 0.00 | 87 | 1021.6 |
| 20260504042343 | 7 | 275 | 0.0 | 0.0 | 0.00 | 0.00 | 0.00 | 87 | 1021.7 |
| 20260504041840 | 7 | 275 | 0.0 | 0.0 | 0.00 | 0.00 | 0.00 | 87 | 1021.6 |
| 20260504041339 | 7 | 275 | 0.0 | 0.0 | 0.00 | 0.00 | 0.00 | 86 | 1021.8 |
| 20260504040839 | 8 | 275 | 0.0 | 0.0 | 0.00 | 0.00 | 0.00 | 86 | 1021.8 |
| 20260504040338 | 8 | 275 | 0.0 | 0.0 | 0.00 | 0.00 | 0.00 | 86 | 1021.9 |
| 20260504035839 | 8 | 275 | 0.0 | 0.0 | 0.00 | 0.00 | 0.00 | 86 | 1021.7 |
| 20260504035337 | 8 | 275 | 0.0 | 0.0 | 0.00 | 0.00 | 0.00 | 86 | 1021.7 |
| 20260504035115 | 8 | 275 | 0.0 | 0.0 | 0.00 | 0.00 | 0.00 | 86 | 1021.7 |
| 20260504034612 | 8 | 275 | 0.0 | 0.0 | 0.00 | 0.00 | 0.00 | 85 | 1021.8 |
| 20260504033833 | 8 | 275 | 0.0 | 0.0 | 0.00 | 0.00 | 0.00 | 85 | 1021.8 |
| 20260504033619 | 8 | 275 | 0.0 | 0.0 | 0.00 | 0.00 | 0.00 | 85 | 1021.7 |
| 20260504032831 | 8 | 275 | 0.0 | 0.0 | 0.00 | 0.00 | 0.00 | 85 | 1021.8 |
| 20260504032332 | 8 | 276 | 0.0 | 0.0 | 0.00 | 0.00 | 0.00 | 84 | 1021.8 |
| 20260504031828 | 8 | 275 | 0.0 | 0.0 | 0.00 | 0.00 | 0.00 | 84 | 1021.9 |
| 20260504031329 | 8 | 275 | 0.0 | 0.0 | 0.00 | 0.00 | 0.00 | 84 | 1021.7 |
| 20260504030828 | 8 | 275 | 0.0 | 0.0 | 0.00 | 0.00 | 0.00 | 83 | 1021.7 |
| 20260504030331 | 8 | 275 | 0.0 | 0.0 | 0.00 | 0.00 | 0.00 | 83 | 1021.7 |
| 20260504025827 | 9 | 275 | 0.0 | 0.0 | 0.00 | 0.00 | 0.00 | 83 | 1021.7 |
| 20260504025328 | 9 | 275 | 0.0 | 0.0 | 0.00 | 0.00 | 0.00 | 82 | 1021.7 |
| 20260504024827 | 9 | 275 | 0.0 | 0.0 | 0.00 | 0.00 | 0.00 | 82 | 1021.7 |
| 20260504024326 | 9 | 276 | 0.0 | 0.0 | 0.00 | 0.00 | 0.00 | 81 | 1021.7 |
| 20260504023825 | 9 | 275 | 0.0 | 0.0 | 0.00 | 0.00 | 0.00 | 81 | 1021.7 |
| 20260504023321 | 10 | 275 | 0.0 | 0.0 | 0.00 | 0.00 | 0.00 | 80 | 1021.6 |
| 20260504022821 | 10 | 275 | 0.0 | 0.0 | 0.00 | 0.00 | 0.00 | 80 | 1021.7 |
| 20260504022319 | 10 | 275 | 0.0 | 0.0 | 0.00 | 0.00 | 0.00 | 80 | 1021.5 |
| 20260504022106 | 10 | 275 | 0.0 | 0.0 | 0.00 | 0.00 | 0.00 | 79 | 1021.5 |
| 20260504021319 | 10 | 275 | 0.0 | 0.0 | 0.00 | 0.00 | 0.00 | 79 | 1021.4 |
| 20260504020816 | 10 | 275 | 0.0 | 0.0 | 0.00 | 0.00 | 0.00 | 78 | 1021.4 |
| 20260504020315 | 10 | 275 | 0.0 | 0.0 | 0.00 | 0.00 | 0.00 | 78 | 1021.3 |
| 20260504015811 | 10 | 275 | 0.0 | 0.0 | 0.00 | 0.00 | 0.00 | 76 | 1021.2 |
| 20260504015309 | 11 | 275 | 0.0 | 0.0 | 0.00 | 0.00 | 0.00 | 76 | 1021.1 |
| 20260504014809 | 11 | 275 | 0.0 | 0.0 | 0.00 | 0.00 | 0.00 | 76 | 1021.1 |
| 20260504014307 | 11 | 275 | 0.0 | 0.0 | 0.00 | 0.00 | 0.00 | 75 | 1021.0 |
| 20260504013803 | 11 | 275 | 0.0 | 0.0 | 0.00 | 0.00 | 0.00 | 73 | 1020.9 |
| 20260504013300 | 11 | 275 | 0.0 | 0.0 | 0.00 | 0.00 | 0.00 | 73 | 1020.9 |
| 20260504012802 | 11 | 275 | 0.0 | 0.0 | 0.00 | 0.00 | 0.00 | 72 | 1020.9 |
| 20260504012314 | 11 | 275 | 0.0 | 0.0 | 0.00 | 0.00 | 0.00 | 72 | 1020.8 |
| 20260504011805 | 11 | 275 | 0.0 | 0.0 | 0.00 | 0.00 | 0.00 | 71 | 1020.8 |
| 20260504011301 | 12 | 275 | 0.0 | 0.0 | 0.00 | 0.00 | 0.00 | 70 | 1020.7 |
| 20260504010755 | 12 | 275 | 0.0 | 0.0 | 0.00 | 0.00 | 0.00 | 69 | 1020.7 |
| 20260504010255 | 12 | 275 | 0.0 | 0.0 | 0.00 | 0.00 | 0.00 | 67 | 1020.6 |
| 20260504005755 | 12 | 275 | 0.0 | 0.0 | 0.00 | 0.00 | 0.00 | 67 | 1020.6 |
| 20260504005256 | 13 | 275 | 0.0 | 0.0 | 0.00 | 0.00 | 0.00 | 66 | 1020.5 |
| 20260504004755 | 13 | 275 | 0.0 | 0.0 | 0.00 | 0.00 | 0.00 | 64 | 1020.5 |
| 20260504004255 | 13 | 275 | 0.0 | 0.0 | 0.00 | 0.00 | 0.00 | 63 | 1020.5 |
| 20260504003758 | 13 | 275 | 0.0 | 0.0 | 0.00 | 0.00 | 0.00 | 61 | 1020.4 |
| 20260504003255 | 14 | 275 | 0.0 | 0.0 | 0.00 | 0.00 | 0.00 | 60 | 1020.3 |
| 20260504002753 | 15 | 275 | 0.0 | 0.0 | 0.00 | 0.00 | 0.00 | 59 | 1020.3 |
| 20260504002255 | 15 | 275 | 0.0 | 0.0 | 0.00 | 0.00 | 0.00 | 57 | 1020.3 |
| 20260504001759 | 15 | 275 | 0.0 | 0.0 | 0.00 | 0.00 | 0.00 | 54 | 1020.3 |
| 20260504001253 | 16 | 275 | 0.0 | 0.0 | 0.00 | 0.00 | 0.00 | 54 | 1020.3 |
| 20260504000755 | 16 | 275 | 0.0 | 0.0 | 0.00 | 0.00 | 0.00 | 52 | 1020.4 |
| 20260504000256 | 16 | 328 | 0.0 | 0.0 | 0.00 | 0.00 | 0.00 | 50 | 1020.3 |
| 20260503235753 | 17 | 328 | 0.0 | 0.0 | 0.00 | 0.00 | 0.00 | 49 | 1020.2 |
| 20260503235254 | 17 | 328 | 0.0 | 0.0 | 0.00 | 0.00 | 0.00 | 47 | 1020.2 |
| 20260503234752 | 17 | 328 | 0.0 | 1.6 | 0.00 | 0.00 | 0.00 | 44 | 1020.2 |
| 20260503234300 | 17 | 328 | 0.0 | 6.4 | 0.00 | 0.00 | 0.00 | 43 | 1020.2 |
| 20260503233859 | 18 | 35 | 1.6 | 8.0 | 0.00 | 0.00 | 0.00 | 41 | 1020.2 |
| 20260503233747 | 18 | 327 | 1.6 | 8.0 | 0.00 | 0.00 | 0.00 | 42 | 1020.2 |
| 20260503233308 | 18 | 344 | 3.2 | 8.0 | 0.00 | 0.00 | 0.00 | 41 | 1020.3 |
| 20260503232247 | 18 | 327 | 1.6 | 8.0 | 0.00 | 0.00 | 0.00 | 42 | 1020.3 |
| 20260503231747 | 18 | 15 | 1.6 | 9.7 | 0.00 | 0.00 | 0.00 | 42 | 1020.2 |
| 20260503231249 | 18 | 26 | 3.2 | 9.7 | 0.00 | 0.00 | 0.00 | 41 | 1020.3 |
| 20260503230746 | 18 | 327 | 3.2 | 8.0 | 0.00 | 0.00 | 0.00 | 40 | 1020.4 |
| 20260503230534 | 18 | 23 | 3.2 | 9.7 | 0.00 | 0.00 | 0.00 | 43 | 1020.3 |
| 20260503225749 | 18 | 32 | 3.2 | 12.9 | 0.00 | 0.00 | 0.00 | 40 | 1020.4 |
| 20260503225245 | 18 | 299 | 4.8 | 12.9 | 0.00 | 0.00 | 0.00 | 38 | 1020.4 |
| 20260503224743 | 18 | 250 | 3.2 | 9.7 | 0.00 | 0.00 | 0.00 | 37 | 1020.4 |
| 20260503224245 | 19 | 327 | 3.2 | 12.9 | 0.00 | 0.00 | 0.00 | 36 | 1020.4 |
| 20260503223742 | 19 | 244 | 4.8 | 14.5 | 0.00 | 0.00 | 0.00 | 34 | 1020.3 |
| 20260503223241 | 18 | 339 | 6.4 | 14.5 | 0.00 | 0.00 | 0.00 | 36 | 1020.4 |
| 20260503223035 | 19 | 315 | 6.4 | 16.1 | 0.00 | 0.00 | 0.00 | 35 | 1020.4 |
| 20260503222241 | 19 | 26 | 4.8 | 16.1 | 0.00 | 0.00 | 0.00 | 35 | 1020.4 |
| 20260503221916 | 20 | 319 | 4.8 | 11.3 | 0.00 | 0.00 | 0.00 | 33 | 1020.4 |
| 20260503221812 | 20 | 342 | 3.2 | 11.3 | 0.00 | 0.00 | 0.00 | 36 | 1020.5 |
| 20260503220742 | 20 | 272 | 3.2 | 12.9 | 0.00 | 0.00 | 0.00 | 34 | 1020.4 |
| 20260503220242 | 20 | 15 | 4.8 | 12.9 | 0.00 | 0.00 | 0.00 | 36 | 1020.5 |
| 20260503215743 | 20 | 27 | 6.4 | 16.1 | 0.00 | 0.00 | 0.00 | 36 | 1020.5 |
| 20260503215236 | 20 | 344 | 6.4 | 16.1 | 0.00 | 0.00 | 0.00 | 36 | 1020.4 |
| 20260503214738 | 20 | 38 | 4.8 | 12.9 | 0.00 | 0.00 | 0.00 | 36 | 1020.5 |
| 20260503214238 | 20 | 28 | 6.4 | 14.5 | 0.00 | 0.00 | 0.00 | 37 | 1020.5 |
| 20260503213736 | 20 | 319 | 6.4 | 14.5 | 0.00 | 0.00 | 0.00 | 35 | 1020.6 |
| 20260503213236 | 20 | 22 | 6.4 | 12.9 | 0.00 | 0.00 | 0.00 | 35 | 1020.5 |
| 20260503212738 | 20 | 67 | 4.8 | 12.9 | 0.00 | 0.00 | 0.00 | 35 | 1020.6 |
| 20260503212529 | 20 | 248 | 4.8 | 14.5 | 0.00 | 0.00 | 0.00 | 37 | 1020.7 |
| 20260503211737 | 20 | 329 | 6.4 | 14.5 | 0.00 | 0.00 | 0.00 | 36 | 1020.6 |
| 20260503211239 | 20 | 5 | 6.4 | 17.7 | 0.00 | 0.00 | 0.00 | 34 | 1020.7 |
| 20260503210740 | 20 | 278 | 8.0 | 17.7 | 0.00 | 0.00 | 0.00 | 37 | 1020.7 |
| 20260503210233 | 20 | 355 | 4.8 | 16.1 | 0.00 | 0.00 | 0.00 | 35 | 1020.7 |
| 20260503205736 | 20 | 328 | 4.8 | 14.5 | 0.00 | 0.00 | 0.00 | 38 | 1020.7 |
| 20260503205234 | 20 | 26 | 4.8 | 14.5 | 0.00 | 0.00 | 0.00 | 39 | 1020.7 |
| 20260503204730 | 20 | 22 | 3.2 | 14.5 | 0.00 | 0.00 | 0.00 | 39 | 1020.8 |
| 20260503204231 | 20 | 261 | 4.8 | 12.9 | 0.00 | 0.00 | 0.00 | 41 | 1020.9 |
| 20260503204026 | 20 | 298 | 6.4 | 17.7 | 0.00 | 0.00 | 0.00 | 38 | 1020.9 |
| 20260503203231 | 20 | 0 | 6.4 | 17.7 | 0.00 | 0.00 | 0.00 | 39 | 1021.0 |
| 20260503202731 | 20 | 342 | 4.8 | 16.1 | 0.00 | 0.00 | 0.00 | 37 | 1021.2 |
| 20260503202229 | 20 | 342 | 3.2 | 16.1 | 0.00 | 0.00 | 0.00 | 39 | 1021.1 |
| 20260503201731 | 20 | 242 | 4.8 | 11.3 | 0.00 | 0.00 | 0.00 | 42 | 1021.3 |
| 20260503201230 | 20 | 355 | 6.4 | 20.9 | 0.00 | 0.00 | 0.00 | 37 | 1021.3 |
| 20260503200731 | 20 | 331 | 9.7 | 20.9 | 0.00 | 0.00 | 0.00 | 39 | 1021.5 |
| 20260503200225 | 20 | 28 | 8.0 | 19.3 | 0.00 | 0.00 | 0.00 | 35 | 1021.6 |
| 20260503195720 | 20 | 31 | 6.4 | 17.7 | 0.00 | 0.00 | 0.00 | 39 | 1021.5 |
| 20260503195216 | 20 | 0 | 6.4 | 14.5 | 0.00 | 0.00 | 0.00 | 36 | 1021.7 |
| 20260503194710 | 20 | 82 | 4.8 | 12.9 | 0.00 | 0.00 | 0.00 | 38 | 1021.8 |
| 20260503194209 | 20 | 315 | 3.2 | 17.7 | 0.00 | 0.00 | 0.00 | 37 | 1021.9 |
| 20260503193707 | 20 | 275 | 3.2 | 17.7 | 0.00 | 0.00 | 0.00 | 35 | 1022.0 |
| 20260503193206 | 20 | 278 | 4.8 | 16.1 | 0.00 | 0.00 | 0.00 | 39 | 1022.0 |
| 20260503192702 | 19 | 341 | 6.4 | 16.1 | 0.00 | 0.00 | 0.00 | 39 | 1022.1 |
| 20260503192445 | 20 | 5 | 6.4 | 14.5 | 0.00 | 0.00 | 0.00 | 41 | 1022.3 |
| 20260503191705 | 20 | 346 | 4.8 | 14.5 | 0.00 | 0.00 | 0.00 | 38 | 1022.4 |
| 20260503191450 | 20 | 313 | 6.4 | 14.5 | 0.00 | 0.00 | 0.00 | 41 | 1022.5 |
| 20260503190702 | 20 | 267 | 6.4 | 14.5 | 0.00 | 0.00 | 0.00 | 43 | 1022.4 |
| 20260503190202 | 20 | 10 | 4.8 | 16.1 | 0.00 | 0.00 | 0.00 | 42 | 1022.5 |
| 20260503185716 | 19 | 244 | 4.8 | 16.1 | 0.00 | 0.00 | 0.00 | 40 | 1022.6 |
| 20260503185702 | 19 | 341 | 6.4 | 16.1 | 0.00 | 0.00 | 0.00 | 45 | 1022.6 |
| 20260503185459 | 19 | 244 | 4.8 | 16.1 | 0.00 | 0.00 | 0.00 | 40 | 1022.6 |
| 20260503184704 | 19 | 244 | 3.2 | 11.3 | 0.00 | 0.00 | 0.00 | 43 | 1022.6 |
| 20260503184201 | 19 | 33 | 4.8 | 12.9 | 0.00 | 0.00 | 0.00 | 41 | 1022.9 |
| 20260503183703 | 18 | 350 | 4.8 | 12.9 | 0.00 | 0.00 | 0.00 | 37 | 1022.9 |
| 20260503183202 | 19 | 338 | 4.8 | 12.9 | 0.00 | 0.00 | 0.00 | 39 | 1022.9 |
| 20260503182947 | 19 | 75 | 4.8 | 16.1 | 0.00 | 0.00 | 0.00 | 38 | 1023.0 |
| 20260503182203 | 19 | 305 | 6.4 | 17.7 | 0.00 | 0.00 | 0.00 | 41 | 1023.0 |
| 20260503181952 | 19 | 225 | 4.8 | 17.7 | 0.00 | 0.00 | 0.00 | 39 | 1023.0 |
| 20260503181153 | 19 | 306 | 6.4 | 16.1 | 0.00 | 0.00 | 0.00 | 43 | 1023.1 |
| 20260503180651 | 18 | 255 | 6.4 | 16.1 | 0.00 | 0.00 | 0.00 | 39 | 1023.1 |
| 20260503180141 | 18 | 316 | 6.4 | 16.1 | 0.00 | 0.00 | 0.00 | 41 | 1023.1 |
| 20260503175636 | 19 | 33 | 4.8 | 16.1 | 0.00 | 0.00 | 0.00 | 43 | 1023.0 |
| 20260503175137 | 18 | 39 | 6.4 | 14.5 | 0.00 | 0.00 | 0.00 | 44 | 1023.0 |
| 20260503174635 | 18 | 0 | 6.4 | 17.7 | 0.00 | 0.00 | 0.00 | 43 | 1023.0 |
| 20260503174419 | 18 | 349 | 6.4 | 17.7 | 0.00 | 0.00 | 0.00 | 45 | 1023.1 |
| 20260503173634 | 18 | 306 | 6.4 | 14.5 | 0.00 | 0.00 | 0.00 | 44 | 1023.2 |
| 20260503173130 | 18 | 344 | 6.4 | 14.5 | 0.00 | 0.00 | 0.00 | 45 | 1023.3 |
| 20260503172630 | 18 | 259 | 4.8 | 14.5 | 0.00 | 0.00 | 0.00 | 42 | 1023.4 |
| 20260503172130 | 18 | 301 | 4.8 | 17.7 | 0.00 | 0.00 | 0.00 | 48 | 1023.4 |
| 20260503171919 | 17 | 211 | 6.4 | 17.7 | 0.00 | 0.00 | 0.00 | 44 | 1023.6 |
| 20260503171129 | 17 | 330 | 4.8 | 16.1 | 0.00 | 0.00 | 0.00 | 49 | 1023.6 |
| 20260503170629 | 18 | 338 | 3.2 | 12.9 | 0.00 | 0.00 | 0.00 | 48 | 1023.6 |
| 20260503170129 | 17 | 238 | 3.2 | 16.1 | 0.00 | 0.00 | 0.00 | 45 | 1023.6 |